Regional Weather Roundup
Issued by NWS Jackson, KY

Home | Current Version | Previous Version | Graphics & Text | Print | Product List | Glossary On
Versions: 1 2 3 4 5 6 7 8 9 10 11 12 13 14 15 16 17 18 19 20 21 22 23 24 25 26 27 28 29 30 31 32 33 34 35 36 37 38 39 40 41 42 43 44 45 46 47 48 49 50
000
ASUS43 KJKL 061510
RWRJKL

EAST KENTUCKY HOURLY WEATHER ROUNDUP
NATIONAL WEATHER SERVICE JACKSON KY
1100 AM EDT WED MAY 06 2015

NOTE: "FAIR" INDICATES FEW OR NO CLOUDS BELOW 12,000 FEET WITH
NO SIGNIFICANT WEATHER AND/OR OBSTRUCTIONS TO VISIBILITY.

* THESE REPORTS ARE NOT UNDER NWS QUALITY CONTROL AND MAY NOT
  REPORT WEATHER SUCH AS PRECIPITATION AND FOG.

KYZ079-080-083-085-087-088-110-112-115-119-120-061600
...EASTERN KENTUCKY...

CITY           SKY/WX    TMP DP  RH WIND       PRES   REMARKS
JACKSON        CLOUDY    71  59  65 CALM      30.25S
LONDON         PTSUNNY   74  55  51 CALM      30.24S
SOMERSET*      CLOUDY    73  55  53 CALM      30.24F
MONTICELLO*    MOSUNNY   77  59  53 CALM      30.25F
MIDDLESBORO*   PTSUNNY   72  60  65 CALM      30.25F
HARLAN APT*    MOSUNNY   72  55  56 CALM      30.26F
BLACK MTN*       N/A     68  52  56 N5          N/A
PIKEVILLE APT* MOSUNNY   66  57  72 CALM      30.26S
BIG SANDY*     PTSUNNY   68  58  69 CALM      30.26S
MOREHEAD APT*  SUNNY     79  55  44 N3        30.25F
$$

KYZ035-036-041-042-044-050-067-078-099-061600
...CENTRAL KENTUCKY...

CITY           SKY/WX    TMP DP  RH WIND       PRES   REMARKS
MT STERLING*   PTSUNNY   77  57  50 CALM      30.25S
FLEMING/MASON* SUNNY     77  57  50 CALM      30.24F
DANVILLE*      CLOUDY    72  61  68 CALM      30.25S
RICHMOND*      CLOUDY    72  55  56 CALM      30.24S
LEXINGTON      PTSUNNY   79  57  46 CALM      30.23F
FRANKFORT      SUNNY     79  57  46 CALM      30.22S
$$

KYZ091>093-OHZ055-061-077-WVZ005-015-034-035-042-061600
...SOUTHERN OHIO/WEST VIRGINIA...

CITY           SKY/WX    TMP DP  RH WIND       PRES   REMARKS
COVINGTON      MOSUNNY   80  56  43 CALM      30.22F
COLUMBUS       MOSUNNY   75  59  57 CALM      30.21F
DAYTON         MOSUNNY   79  58  48 W5        30.23S
WILMINGTON     SUNNY     79  54  41 CALM      30.22F
HUNTINGTON     SUNNY     77  56  48 CALM      30.23S
CHARLESTON     MOSUNNY   77  58  51 CALM      30.23F
PINEVILLE*     MOSUNNY   71  59  66 MISG      30.32F
BECKLEY        CLOUDY    72  52  49 VRB3      30.30S
BLUEFIELD      MOSUNNY   76  52  43 MISG      30.31F
$$

VAZ002-007-008-TNZ017-027-036-066-071-061600
...SOUTHWEST VIRGINIA/EAST TENNESSEE...

CITY           SKY/WX    TMP DP  RH WIND       PRES   REMARKS
WISE*          MOSUNNY   72  50  46 NE5       30.31S
JONESVILLE*    MOSUNNY   73  55  53 CALM      30.27F
ABINGDON*      SUNNY     74  55  50 CALM      30.27F
BRISTOL        SUNNY     73  56  54 CALM      30.26F
KNOXVILLE      MOSUNNY   76  55  48 W6        30.23S
OAK RIDGE      SUNNY     77  56  48 CALM      30.24F
CROSSVILLE     SUNNY     74  50  42 W6        30.26F
NASHVILLE      MOSUNNY   78  56  46 VRB6      30.22S
$$

...KEY TO REMARKS...
VSB - VISIBILITY IN MILES
WCI - WIND CHILL INDEX
HX  - HEAT INDEX

$$


USA.gov is the U.S. government's official web portal to all federal, state and local government web resources and services.